Location: Unspecified
(48.2082°N, 0.0000°E)
Time: 01:14:35
(UTC+00:00)

Transit 4A - Pass Details

Date: 25 June 2019
Orbit: 866 x 978 km, 66.8° (Epoch: 14 October)

Event Time Altitude Azimuth Distance (km) Brightness Sun altitude
Rises 16:41:13 0° 321° (NW) 3,685 11.5 30.6°
Reaches altitude 10° 16:43:53 10° 316° (NW) 2,727 11.1 30.1°
Maximum altitude 16:49:56 47° 245° (WSW) 1,257 10.0 29.1°
Drops below altitude 10° 16:55:50 10° 174° (S) 2,657 10.3 28.2°
Sets 16:58:25 0° 168° (SSE) 3,581 10.8 27.7°
